N252JR PANC-PAVD

Flight info

Callsign N252JR
Flight time 0h 47m
Altitude 4500
Route DCT€“ GWD €“ LAKE PORTAGE €“ WTR €“ ESTHER ISL €“ KNIGHT ISL €“ TATITLEK €“ DCT
Aircraft BE20/L-SBGRY/EB1

Departure

Time 2026-04-24 03:55
Airport Ted Stevens Anchorage International Airport (PANC)

Arrival

Time 2026-04-24 04:42
Airport Valdez Pioneer Field (PAVD)
Time Latitude Longitude Altitude Speed Heading
2026-04-24 02:37 61.16162 -149.98299 156 ft 0 kts 160°
2026-04-24 03:16 61.16161 -149.98299 156 ft 0 kts 160°
2026-04-24 03:17 61.16161 -149.98298 156 ft 0 kts 160°
2026-04-24 03:19 61.16160 -149.98298 156 ft 0 kts 160°
2026-04-24 03:20 61.16160 -149.98297 156 ft 0 kts 160°
2026-04-24 03:21 61.16159 -149.98297 156 ft 0 kts 160°
2026-04-24 03:23 61.16158 -149.98296 156 ft 0 kts 160°
2026-04-24 03:25 61.16157 -149.98296 156 ft 0 kts 160°
2026-04-24 03:25 61.16157 -149.98295 156 ft 0 kts 160°
2026-04-24 03:27 61.16156 -149.98295 156 ft 0 kts 160°
2026-04-24 03:28 61.16156 -149.98294 156 ft 0 kts 160°
2026-04-24 03:29 61.16155 -149.98294 156 ft 0 kts 160°
2026-04-24 03:31 61.16154 -149.98293 156 ft 0 kts 160°
2026-04-24 03:33 61.16153 -149.98293 156 ft 0 kts 161°
2026-04-24 03:34 61.16153 -149.98292 156 ft 0 kts 161°
2026-04-24 03:34 61.16152 -149.98292 156 ft 0 kts 161°
2026-04-24 03:35 61.16152 -149.98291 156 ft 0 kts 160°
2026-04-24 03:35 61.16151 -149.98291 156 ft 0 kts 160°
2026-04-24 03:36 61.16150 -149.98290 156 ft 0 kts 160°
2026-04-24 03:37 61.16149 -149.98290 156 ft 0 kts 160°
2026-04-24 03:37 61.16149 -149.98289 156 ft 0 kts 160°
2026-04-24 03:38 61.16148 -149.98289 156 ft 0 kts 160°
2026-04-24 03:38 61.16148 -149.98288 156 ft 0 kts 159°
2026-04-24 03:39 61.16147 -149.98288 156 ft 0 kts 159°
2026-04-24 03:39 61.16146 -149.98287 156 ft 0 kts 159°
2026-04-24 03:40 61.16120 -149.98266 156 ft 7 kts 154°
2026-04-24 03:40 61.16098 -149.98185 156 ft 9 kts 70°
2026-04-24 03:40 61.16155 -149.98171 156 ft 9 kts 342°
2026-04-24 03:41 61.16212 -149.98214 156 ft 8 kts 339°
2026-04-24 03:41 61.16259 -149.98250 156 ft 7 kts 339°
2026-04-24 03:41 61.16297 -149.98280 156 ft 5 kts 340°
2026-04-24 03:41 61.16335 -149.98308 156 ft 7 kts 340°
2026-04-24 03:42 61.16387 -149.98348 156 ft 9 kts 339°
2026-04-24 03:42 61.16451 -149.98395 156 ft 10 kts 340°
2026-04-24 03:42 61.16523 -149.98451 156 ft 12 kts 340°
2026-04-24 03:42 61.16598 -149.98507 156 ft 10 kts 340°
2026-04-24 03:43 61.16654 -149.98549 156 ft 7 kts 340°
2026-04-24 03:43 61.16679 -149.98568 156 ft 0 kts 340°
2026-04-24 03:43 61.16680 -149.98568 156 ft 0 kts 340°
2026-04-24 03:43 61.16684 -149.98572 156 ft 2 kts 340°
2026-04-24 03:44 61.16713 -149.98594 156 ft 7 kts 339°
2026-04-24 03:44 61.16770 -149.98639 156 ft 11 kts 339°
2026-04-24 03:44 61.16845 -149.98701 156 ft 10 kts 336°
2026-04-24 03:44 61.16886 -149.98738 156 ft 3 kts 348°
2026-04-24 03:45 61.16913 -149.98737 157 ft 5 kts 15°
2026-04-24 03:45 61.16950 -149.98698 156 ft 10 kts 27°
2026-04-24 03:45 61.17061 -149.98653 156 ft 19 kts 326°
2026-04-24 03:45 61.17119 -149.98874 156 ft 17 kts 281°
2026-04-24 03:46 61.17170 -149.99102 156 ft 20 kts 337°
2026-04-24 03:46 61.17298 -149.99173 156 ft 17 kts 346°
2026-04-24 03:46 61.17396 -149.99232 156 ft 12 kts 330°
2026-04-24 03:46 61.17459 -149.99291 156 ft 8 kts 337°
2026-04-24 03:47 61.17501 -149.99326 156 ft 5 kts 338°
2026-04-24 03:47 61.17542 -149.99355 156 ft 8 kts 342°
2026-04-24 03:47 61.17602 -149.99397 156 ft 10 kts 338°
2026-04-24 03:47 61.17665 -149.99493 156 ft 12 kts 295°
2026-04-24 03:48 61.17669 -149.99717 156 ft 17 kts 271°
2026-04-24 03:48 61.17760 -149.99863 156 ft 20 kts 344°
2026-04-24 03:48 61.17916 -149.99950 156 ft 26 kts 345°
2026-04-24 03:48 61.18099 -150.00051 156 ft 27 kts 344°
2026-04-24 03:49 61.18273 -150.00149 156 ft 25 kts 346°
2026-04-24 03:49 61.18427 -150.00240 156 ft 22 kts 345°
2026-04-24 03:49 61.18565 -150.00308 156 ft 17 kts 347°
2026-04-24 03:49 61.18650 -150.00410 156 ft 10 kts 309°
2026-04-24 03:50 61.18667 -150.00494 156 ft 3 kts 268°
2026-04-24 03:50 61.18666 -150.00507 156 ft 0 kts 260°
2026-04-24 03:51 61.18666 -150.00508 156 ft 0 kts 260°
2026-04-24 03:52 61.18666 -150.00509 156 ft 0 kts 260°
2026-04-24 03:53 61.18664 -150.00524 156 ft 4 kts 255°
2026-04-24 03:53 61.18663 -150.00538 156 ft 0 kts 254°
2026-04-24 03:53 61.18662 -150.00544 156 ft 2 kts 254°
2026-04-24 03:54 61.18641 -150.00641 156 ft 10 kts 221°
2026-04-24 03:54 61.18446 -150.00595 157 ft 62 kts 165°
2026-04-24 03:54 61.17830 -150.00254 204 ft 113 kts 163°
2026-04-24 03:54 61.17035 -149.99765 552 ft 122 kts 161°
2026-04-24 03:55 61.16225 -149.99390 1160 ft 120 kts 168°
2026-04-24 03:55 61.15294 -149.99881 1151 ft 160 kts 205°
2026-04-24 03:55 61.14390 -150.01301 1470 ft 172 kts 213°
2026-04-24 03:55 61.13435 -150.02936 1896 ft 184 kts 215°
2026-04-24 03:56 61.12412 -150.04671 2310 ft 189 kts 214°
2026-04-24 03:56 61.11343 -150.06134 2698 ft 185 kts 197°
2026-04-24 03:56 61.10094 -150.06443 3121 ft 180 kts 176°
2026-04-24 03:56 61.08848 -150.06233 3520 ft 180 kts 171°
2026-04-24 03:57 61.07608 -150.05849 3918 ft 180 kts 164°
2026-04-24 03:57 61.06563 -150.04521 4314 ft 176 kts 136°
2026-04-24 03:57 61.05753 -150.02578 4456 ft 183 kts 128°
2026-04-24 03:57 61.05020 -150.00347 4492 ft 193 kts 121°
2026-04-24 03:58 61.04377 -149.97842 4495 ft 201 kts 115°
2026-04-24 03:58 61.03878 -149.95104 4496 ft 206 kts 111°
2026-04-24 03:58 61.03407 -149.92278 4493 ft 210 kts 110°
2026-04-24 03:58 61.02947 -149.89407 4489 ft 214 kts 113°
2026-04-24 03:59 61.02864 -149.88833 4490 ft 214 kts 112°
2026-04-24 04:00 61.02698 -149.87650 4494 ft 215 kts 107°
2026-04-24 04:00 61.02605 -149.87002 4494 ft 215 kts 108°
2026-04-24 04:00 61.02150 -149.84047 4493 ft 216 kts 109°
2026-04-24 04:01 61.01679 -149.81105 4491 ft 216 kts 110°
2026-04-24 04:01 61.01201 -149.78160 4491 ft 217 kts 110°
2026-04-24 04:01 61.00724 -149.75225 4491 ft 217 kts 110°
2026-04-24 04:01 61.00245 -149.72290 4492 ft 216 kts 110°
2026-04-24 04:02 60.99760 -149.69378 4491 ft 215 kts 110°
2026-04-24 04:02 60.99262 -149.66457 4491 ft 214 kts 110°
2026-04-24 04:02 60.98765 -149.63577 4491 ft 214 kts 110°
2026-04-24 04:02 60.98268 -149.60703 4491 ft 213 kts 110°
2026-04-24 04:03 60.97776 -149.57858 4488 ft 207 kts 110°
2026-04-24 04:03 60.97299 -149.55104 4488 ft 202 kts 110°
2026-04-24 04:03 60.96826 -149.52410 4488 ft 199 kts 111°
2026-04-24 04:03 60.96334 -149.49781 4489 ft 196 kts 112°
2026-04-24 04:04 60.95834 -149.47182 4490 ft 194 kts 112°
2026-04-24 04:04 60.95335 -149.44600 4490 ft 193 kts 112°
2026-04-24 04:04 60.94839 -149.42041 4490 ft 192 kts 112°
2026-04-24 04:04 60.94346 -149.39500 4490 ft 192 kts 112°
2026-04-24 04:05 60.93851 -149.36952 4490 ft 191 kts 112°
2026-04-24 04:05 60.93359 -149.34420 4491 ft 191 kts 112°
2026-04-24 04:05 60.92868 -149.31896 4491 ft 191 kts 112°
2026-04-24 04:05 60.92373 -149.29351 4491 ft 191 kts 112°
2026-04-24 04:06 60.91883 -149.26832 4491 ft 190 kts 112°
2026-04-24 04:06 60.91417 -149.24248 4484 ft 200 kts 113°
2026-04-24 04:07 60.91211 -149.23077 4516 ft 198 kts 110°
2026-04-24 04:07 60.91150 -149.22741 4513 ft 198 kts 111°
2026-04-24 04:08 60.90664 -149.20159 4496 ft 198 kts 112°
2026-04-24 04:08 60.90150 -149.17532 4492 ft 198 kts 112°
2026-04-24 04:08 60.89598 -149.14962 4491 ft 197 kts 116°
2026-04-24 04:09 60.88952 -149.12492 4490 ft 193 kts 119°
2026-04-24 04:09 60.88293 -149.10148 4488 ft 187 kts 120°
2026-04-24 04:09 60.87674 -149.07988 4562 ft 162 kts 120°
2026-04-24 04:09 60.87119 -149.06069 4490 ft 152 kts 120°
2026-04-24 04:10 60.86495 -149.04386 4487 ft 146 kts 130°
2026-04-24 04:10 60.86049 -149.03352 4490 ft 146 kts 131°
2026-04-24 04:10 60.85368 -149.01813 4491 ft 146 kts 131°
2026-04-24 04:11 60.84000 -148.98741 4491 ft 146 kts 131°
2026-04-24 04:11 60.83283 -148.97256 4492 ft 146 kts 134°
2026-04-24 04:11 60.82566 -148.95779 4491 ft 146 kts 133°
2026-04-24 04:11 60.81852 -148.94292 4492 ft 147 kts 133°
2026-04-24 04:12 60.81125 -148.92779 4496 ft 152 kts 133°
2026-04-24 04:12 60.80397 -148.91166 4495 ft 155 kts 131°
2026-04-24 04:12 60.79679 -148.89507 4492 ft 157 kts 130°
2026-04-24 04:12 60.78959 -148.87834 4492 ft 157 kts 130°
2026-04-24 04:13 60.78270 -148.86093 4493 ft 158 kts 127°
2026-04-24 04:13 60.77635 -148.84249 4484 ft 159 kts 119°
2026-04-24 04:13 60.77209 -148.82180 4498 ft 158 kts 110°
2026-04-24 04:13 60.76859 -148.80051 4492 ft 158 kts 107°
2026-04-24 04:14 60.76778 -148.77803 4499 ft 158 kts 89°
2026-04-24 04:14 60.76865 -148.75566 4493 ft 159 kts 86°
2026-04-24 04:14 60.77080 -148.73343 4494 ft 160 kts 75°
2026-04-24 04:14 60.77460 -148.71198 4493 ft 161 kts 71°
2026-04-24 04:15 60.77868 -148.69059 4490 ft 162 kts 71°
2026-04-24 04:15 60.78282 -148.66909 4491 ft 162 kts 71°
2026-04-24 04:15 60.78758 -148.64812 4465 ft 168 kts 65°
2026-04-24 04:15 60.79321 -148.62524 4473 ft 187 kts 64°
2026-04-24 04:16 60.79928 -148.59972 4489 ft 213 kts 63°
2026-04-24 04:16 60.80576 -148.57097 4502 ft 232 kts 64°
2026-04-24 04:16 60.81011 -148.53839 4527 ft 238 kts 83°
2026-04-24 04:16 60.81119 -148.50462 4503 ft 238 kts 90°
2026-04-24 04:17 60.81121 -148.47067 4492 ft 238 kts 91°
2026-04-24 04:17 60.81086 -148.43682 4491 ft 238 kts 92°
2026-04-24 04:17 60.81044 -148.40340 4491 ft 237 kts 92°
2026-04-24 04:17 60.80999 -148.36937 4491 ft 237 kts 92°
2026-04-24 04:18 60.80952 -148.33558 4491 ft 236 kts 92°
2026-04-24 04:18 60.80898 -148.30197 4490 ft 236 kts 95°
2026-04-24 04:18 60.80720 -148.26853 4492 ft 236 kts 98°
2026-04-24 04:18 60.80472 -148.23540 4491 ft 236 kts 100°
2026-04-24 04:19 60.80201 -148.20240 4491 ft 235 kts 101°
2026-04-24 04:19 60.79921 -148.16936 4491 ft 234 kts 100°
2026-04-24 04:19 60.79638 -148.13668 4491 ft 233 kts 101°
2026-04-24 04:19 60.79391 -148.10406 4490 ft 232 kts 98°
2026-04-24 04:20 60.79189 -148.07127 4491 ft 232 kts 97°
2026-04-24 04:20 60.78995 -148.03856 4491 ft 231 kts 98°
2026-04-24 04:20 60.78793 -148.00590 4491 ft 231 kts 98°
2026-04-24 04:20 60.78580 -147.97321 4491 ft 231 kts 98°
2026-04-24 04:21 60.78357 -147.94073 4491 ft 231 kts 99°
2026-04-24 04:21 60.78117 -147.90821 4491 ft 231 kts 99°
2026-04-24 04:21 60.77869 -147.87566 4491 ft 231 kts 99°
2026-04-24 04:21 60.77621 -147.84324 4491 ft 231 kts 99°
2026-04-24 04:22 60.77373 -147.81083 4491 ft 231 kts 99°
2026-04-24 04:22 60.77125 -147.77816 4491 ft 235 kts 99°
2026-04-24 04:22 60.76857 -147.74506 4493 ft 236 kts 100°
2026-04-24 04:22 60.76576 -147.71204 4493 ft 236 kts 101°
2026-04-24 04:23 60.76296 -147.67923 4490 ft 233 kts 102°
2026-04-24 04:23 60.76019 -147.64665 4490 ft 231 kts 102°
2026-04-24 04:23 60.75747 -147.61445 4490 ft 230 kts 102°
2026-04-24 04:23 60.75477 -147.58228 4490 ft 229 kts 102°
2026-04-24 04:24 60.75209 -147.55017 4491 ft 229 kts 102°
2026-04-24 04:24 60.74943 -147.51816 4491 ft 228 kts 102°
2026-04-24 04:24 60.74677 -147.48608 4490 ft 229 kts 101°
2026-04-24 04:24 60.74413 -147.45400 4491 ft 229 kts 101°
2026-04-24 04:25 60.74149 -147.42188 4491 ft 230 kts 101°
2026-04-24 04:25 60.73881 -147.38961 4491 ft 230 kts 101°
2026-04-24 04:25 60.73613 -147.35736 4491 ft 230 kts 101°
2026-04-24 04:25 60.73343 -147.32503 4491 ft 230 kts 101°
2026-04-24 04:26 60.73175 -147.29269 4485 ft 232 kts 89°
2026-04-24 04:26 60.73647 -147.26087 4504 ft 236 kts 66°
2026-04-24 04:26 60.74561 -147.23267 4498 ft 240 kts 56°
2026-04-24 04:26 60.75641 -147.20668 4493 ft 241 kts 52°
2026-04-24 04:27 60.76780 -147.18145 4490 ft 241 kts 51°
2026-04-24 04:27 60.77905 -147.15685 4487 ft 231 kts 51°
2026-04-24 04:27 60.78977 -147.13330 4487 ft 222 kts 52°
2026-04-24 04:27 60.80001 -147.11033 4487 ft 216 kts 53°
2026-04-24 04:28 60.80962 -147.08847 4588 ft 189 kts 54°
2026-04-24 04:28 60.81804 -147.06903 4497 ft 178 kts 55°
2026-04-24 04:28 60.82606 -147.05001 4490 ft 176 kts 56°
2026-04-24 04:28 60.83402 -147.03090 4490 ft 175 kts 56°
2026-04-24 04:29 60.84195 -147.01190 4491 ft 176 kts 56°
2026-04-24 04:29 60.85022 -146.99325 4492 ft 179 kts 51°
2026-04-24 04:29 60.85962 -146.97623 4493 ft 181 kts 46°
2026-04-24 04:29 60.86937 -146.95988 4491 ft 182 kts 45°
2026-04-24 04:30 60.87918 -146.94360 4491 ft 182 kts 45°
2026-04-24 04:30 60.88898 -146.92722 4491 ft 182 kts 45°
2026-04-24 04:30 60.89878 -146.91081 4491 ft 182 kts 45°
2026-04-24 04:30 60.90861 -146.89431 4491 ft 182 kts 45°
2026-04-24 04:31 60.91838 -146.87789 4492 ft 181 kts 46°
2026-04-24 04:31 60.92495 -146.86687 4491 ft 181 kts 46°
2026-04-24 04:31 60.93461 -146.85065 4490 ft 180 kts 46°
2026-04-24 04:31 60.93896 -146.84333 4490 ft 180 kts 46°
2026-04-24 04:33 60.94597 -146.83150 4561 ft 177 kts 46°
2026-04-24 04:33 60.95534 -146.81572 4715 ft 173 kts 46°
2026-04-24 04:33 60.96454 -146.80024 4818 ft 173 kts 47°
2026-04-24 04:34 60.97395 -146.78424 4847 ft 177 kts 47°
2026-04-24 04:34 60.98353 -146.76782 4846 ft 180 kts 47°
2026-04-24 04:34 60.99331 -146.75091 4848 ft 181 kts 47°
2026-04-24 04:34 61.00288 -146.73414 4846 ft 180 kts 47°
2026-04-24 04:35 61.01242 -146.71771 4838 ft 177 kts 40°
2026-04-24 04:35 61.01954 -146.70744 4849 ft 174 kts 36°
2026-04-24 04:35 61.02964 -146.69335 4833 ft 173 kts 35°
2026-04-24 04:35 61.03960 -146.67939 4622 ft 176 kts 35°
2026-04-24 04:36 61.04984 -146.66508 4420 ft 175 kts 35°
2026-04-24 04:36 61.05975 -146.65106 4222 ft 174 kts 35°
2026-04-24 04:36 61.06956 -146.63676 4020 ft 171 kts 38°
2026-04-24 04:36 61.07759 -146.61911 3830 ft 167 kts 51°
2026-04-24 04:37 61.08468 -146.60043 3633 ft 165 kts 53°
2026-04-24 04:37 61.09078 -146.58034 3436 ft 164 kts 61°
2026-04-24 04:37 61.09570 -146.55916 3248 ft 163 kts 67°
2026-04-24 04:37 61.09951 -146.53721 3057 ft 162 kts 73°
2026-04-24 04:38 61.10232 -146.51465 2898 ft 155 kts 78°
2026-04-24 04:38 61.10413 -146.49521 2793 ft 132 kts 80°
2026-04-24 04:38 61.10567 -146.47672 2591 ft 130 kts 80°
2026-04-24 04:38 61.10733 -146.45835 2384 ft 129 kts 79°
2026-04-24 04:39 61.10924 -146.44020 2183 ft 129 kts 77°
2026-04-24 04:39 61.11137 -146.42231 1982 ft 129 kts 75°
2026-04-24 04:39 61.11364 -146.40446 1783 ft 128 kts 75°
2026-04-24 04:39 61.11593 -146.38665 1588 ft 128 kts 75°
2026-04-24 04:40 61.11816 -146.36888 1382 ft 128 kts 75°
2026-04-24 04:40 61.12034 -146.35096 1133 ft 130 kts 76°
2026-04-24 04:40 61.12244 -146.33339 871 ft 120 kts 76°
2026-04-24 04:40 61.12496 -146.31755 671 ft 111 kts 66°
2026-04-24 04:41 61.12808 -146.30335 521 ft 111 kts 64°
2026-04-24 04:41 61.13078 -146.28770 403 ft 117 kts 73°
2026-04-24 04:41 61.13246 -146.27133 237 ft 115 kts 83°
2026-04-24 04:41 61.13348 -146.25543 93 ft 103 kts 83°
2026-04-24 04:42 61.13450 -146.24207 80 ft 87 kts 81°
2026-04-24 04:42 61.13521 -146.23242 79 ft 30 kts 81°
2026-04-24 04:42 61.13529 -146.23060 79 ft 11 kts 94°
2026-04-24 04:42 61.13541 -146.22911 79 ft 10 kts 78°
2026-04-24 04:43 61.13539 -146.22778 79 ft 9 kts 117°
2026-04-24 04:43 61.13492 -146.22687 79 ft 9 kts 156°
2026-04-24 04:43 61.13442 -146.22668 79 ft 0 kts 174°
2026-04-24 04:44 61.13441 -146.22668 79 ft 0 kts 174°
2026-04-24 04:46 61.13438 -146.22668 79 ft 2 kts 174°
2026-04-24 04:46 61.13390 -146.22678 79 ft 10 kts 217°
2026-04-24 04:46 61.13370 -146.22848 79 ft 15 kts 261°
2026-04-24 04:46 61.13354 -146.23066 79 ft 16 kts 260°
2026-04-24 04:47 61.13335 -146.23307 79 ft 16 kts 259°
2026-04-24 04:47 61.13312 -146.23554 79 ft 17 kts 260°
2026-04-24 04:47 61.13291 -146.23791 79 ft 17 kts 261°
2026-04-24 04:47 61.13270 -146.24024 79 ft 16 kts 261°
2026-04-24 04:48 61.13248 -146.24223 79 ft 14 kts 257°
2026-04-24 04:48 61.13225 -146.24334 79 ft 5 kts 218°
2026-04-24 04:48 61.13191 -146.24385 79 ft 5 kts 189°
2026-04-24 04:48 61.13177 -146.24382 79 ft 0 kts 170°
2026-04-24 04:49 61.13176 -146.24382 79 ft 0 kts 170°
2026-04-24 04:50 61.13176 -146.24381 79 ft 0 kts 170°